This is the latest recevied weather packets stored in our database for station/object DG3NAD-21. If no packets are shown the sender has not sent any weather packets the latest 10 day(s).
| Time | Temp. | Humidity | Pressure | Rain* | Wind** | Luminosity | Snow |
|---|---|---|---|---|---|---|---|
| 1788421398 | 18.89° C | 56% | 1024.7 hPa | - | - | - | - |
| 1788420498 | 18.89° C | 56% | 1024.4 hPa | - | - | - | - |
| 1788419598 | 18.33° C | 57% | 1024.4 hPa | - | - | - | - |
| 1788418698 | 17.78° C | 58% | 1024.9 hPa | - | - | - | - |
| 1788417797 | 17.22° C | 59% | 1024.8 hPa | - | - | - | - |
| 1788416897 | 16.67° C | 60% | 1024.9 hPa | - | - | - | - |
| 1788415996 | 16.67° C | 60% | 1024.8 hPa | - | - | - | - |
| 1788415095 | 16.11° C | 59% | 1024.9 hPa | - | - | - | - |
| 1788414195 | 16.11° C | 59% | 1024.9 hPa | - | - | - | - |
| 1788413295 | 16.11° C | 58% | 1025 hPa | - | - | - | - |
| 1788412395 | 16.11° C | 57% | 1024.6 hPa | - | - | - | - |
| 1788411495 | 15.56° C | 57% | 1024.5 hPa | - | - | - | - |
| 1788410594 | 16.11° C | 57% | 1024.3 hPa | - | - | - | - |
| 1788409694 | 16.11° C | 57% | 1024.3 hPa | - | - | - | - |
| 1788408794 | 16.11° C | 57% | 1024.2 hPa | - | - | - | - |
| 1788407894 | 16.11° C | 56% | 1024.4 hPa | - | - | - | - |
| 1788406994 | 16.11° C | 56% | 1024.5 hPa | - | - | - | - |
| 1788406094 | 16.67° C | 55% | 1024.6 hPa | - | - | - | - |
| 1788405194 | 16.67° C | 55% | 1024.7 hPa | - | - | - | - |
| 1788404293 | 16.67° C | 54% | 1024.5 hPa | - | - | - | - |
| 1788403393 | 16.67° C | 54% | 1024.4 hPa | - | - | - | - |
| 1788402493 | 16.67° C | 53% | 1024.5 hPa | - | - | - | - |
| 1788401609 | 17.22° C | 53% | 1024.6 hPa | - | - | - | - |
| 1788400691 | 17.22° C | 53% | 1024.7 hPa | - | - | - | - |
| 1788399790 | 17.22° C | 52% | 1024.6 hPa | - | - | - | - |
* Rain since midnight (hover to see other rain measurements)
** Current wind speed in m/s (hover to see current wind gust speed)